Flag for Germany Weather past 2 weeks in Potsdam, Brandenburg, Germany

Now
57 °F

Overcast.


Feels Like: 57 °F
Forecast: 49 / 65 °F
Wind: 5 mph from Southwest

Location: Potsdam

Current Time: May 23, 2015 at 12:56:56 AM

Latest Report: May 23, 2015 at 12:00 AM


Visibility: 25 mi

Pressure: 30.18 "Hg

Humidity: 62%

Dew point: 44 °F

Location of PotsdamLocation

Historic Weather in Potsdam — Graph

°F

Potsdam temperature yesterday

Maximum temperature yesterday: 67 °F (at 3:00 PM)
Minimum temperature yesterday: 43 °F (at 4:00 AM)
Average temperature yesterday: 56 °F

Past Weeks' High & Low Weather Summary

 TemperatureHumidityPressure
High81 °F (May 12, 4:00 PM)100% (May 15, 5:00 AM)30.39 "Hg (May 15, 5:00 AM)
Low40 °F (May 15, 6:00 AM)21% (May 11, 4:00 PM)29.59 "Hg (May 19, 4:00 AM)
Average55 °F65%30.04 "Hg
* Reported May 7 11:00 PM — May 22 11:00 PM, Potsdam, Weather by CustomWeather, © 2015

Note: Actual official high and low records may vary slightly from our data, if they occured in-between our weather recording intervals... More about our weather records

Advertising

Potsdam weather history for previous 24 hours

 ConditionsComfort  
Time TempWeatherWind HumidityBarometerVisibility
11:00 PM
Fri, May 22
58 °FPassing clouds.3 mph61%30.19 "Hg25 mi
10:00 PM58 °FPassing clouds.3 mph54%30.19 "Hg19 mi
9:00 PM59 °FPartly sunny.3 mph52%30.18 "Hg22 mi
8:00 PM63 °FScattered clouds.1 mph46%30.18 "Hg22 mi
7:00 PM65 °FPartly sunny.2 mph39%30.19 "Hg25 mi
6:00 PM65 °FOvercast.3 mph39%30.19 "Hg25 mi
5:00 PM65 °FOvercast.3 mph36%30.21 "Hg25 mi
4:00 PM66 °FOvercast.2 mph37%30.22 "Hg25 mi
3:00 PM67 °FPartly sunny.5 mph32%30.24 "Hg25 mi
2:00 PM65 °FPartly sunny.2 mph36%30.26 "Hg25 mi
1:00 PM65 °FPartly sunny.3 mph37%30.27 "Hg25 mi
12:00 PM64 °FScattered clouds.2 mph35%30.29 "Hg25 mi
11:00 AM63 °FScattered clouds.3 mph40%30.30 "Hg25 mi
10:00 AM60 °FPassing clouds.3 mph47%30.31 "Hg25 mi
9:00 AM56 °FPartly sunny.2 mph68%30.32 "Hg22 mi
8:00 AM51 °FScattered clouds.1 mph74%30.32 "Hg22 mi
7:00 AM46 °FScattered clouds.3 mph88%30.32 "Hg22 mi
6:00 AM44 °FScattered clouds.3 mph91%30.32 "Hg22 mi
5:00 AM44 °FPassing clouds.3 mph91%30.31 "Hg22 mi
4:00 AM43 °FPassing clouds.3 mph91%30.32 "Hg25 mi
3:00 AM44 °FClear.5 mph92%30.31 "Hg25 mi
2:00 AM45 °FClear.5 mph87%30.31 "Hg25 mi
1:00 AM46 °FClear.3 mph86%30.31 "Hg25 mi
12:00 AM47 °FClear.3 mph81%30.30 "Hg28 mi
Weather by CustomWeather, © 2015

See weather overviewHow to use our weather pages